Terminal Aerodrome Forecast
Issued by NWS Portland, ME

Current Version | Previous Version | Text Only | Print | Product List | Glossary On
Versions: 1 2 3 4 5 6 7 8 9 10 11 12 13 14 15 16 17 18 19
000 FTUS41 KGYX 211218 AAA TAFPWM TAF AMD KPWM 211218Z 2112/2212 18006KT 5SM -RA BR OVC020 TEMPO 2112/2115 1 1/2SM RA BR OVC007 FM211500 16008KT P6SM OVC015 FM220300 VRB03KT 2SM BR OVC007=

USA.gov is the U.S. government's official web portal to all federal, state and local government web resources and services.